TimeEDT,TemperatureF,Dew PointF,Humidity,Sea Level PressureIn,VisibilityMPH,Wind Direction,Wind SpeedMPH,Gust SpeedMPH,PrecipitationIn,Events,Conditions,WindDirDegrees,DateUTC
12:53 AM,62.1,55.9,80,30.13,10.0,Calm,Calm,-,N/A,,Overcast,0,2013-08-11 04:53:00
1:53 AM,61.0,55.9,83,30.13,10.0,NNE,3.5,-,N/A,,Mostly Cloudy,30,2013-08-11 05:53:00
2:53 AM,60.1,55.9,86,30.13,10.0,Calm,Calm,-,N/A,,Scattered Clouds,0,2013-08-11 06:53:00
3:53 AM,57.9,55.9,93,30.14,10.0,Calm,Calm,-,N/A,,Scattered Clouds,0,2013-08-11 07:53:00
4:53 AM,61.0,55.0,81,30.14,10.0,Calm,Calm,-,N/A,,Overcast,0,2013-08-11 08:53:00
5:53 AM,59.0,53.1,81,30.14,10.0,Calm,Calm,-,N/A,,Scattered Clouds,0,2013-08-11 09:53:00
6:53 AM,57.0,54.0,89,30.15,10.0,Calm,Calm,-,N/A,,Clear,0,2013-08-11 10:53:00
7:53 AM,62.1,53.1,72,30.16,10.0,East,3.5,-,N/A,,Partly Cloudy,90,2013-08-11 11:53:00
8:53 AM,64.9,52.0,63,30.17,10.0,NE,3.5,-,N/A,,Mostly Cloudy,40,2013-08-11 12:53:00
9:53 AM,68.0,50.0,52,30.15,10.0,NE,4.6,-,N/A,,Clear,50,2013-08-11 13:53:00
10:53 AM,69.1,50.0,51,30.16,10.0,Variable,3.5,-,N/A,,Clear,0,2013-08-11 14:53:00
11:53 AM,72.0,51.1,48,30.15,10.0,North,4.6,-,N/A,,Clear,350,2013-08-11 15:53:00
12:53 PM,73.0,51.1,46,30.13,10.0,Calm,Calm,-,N/A,,Scattered Clouds,0,2013-08-11 16:53:00
1:53 PM,73.9,51.1,45,30.12,10.0,Calm,Calm,-,N/A,,Partly Cloudy,0,2013-08-11 17:53:00
2:53 PM,75.9,54.0,46,30.11,10.0,West,6.9,-,N/A,,Overcast,270,2013-08-11 18:53:00
3:53 PM,77.0,55.0,47,30.09,10.0,NW,4.6,-,N/A,,Scattered Clouds,310,2013-08-11 19:53:00
4:53 PM,77.0,55.0,47,30.09,10.0,Calm,Calm,-,N/A,,Mostly Cloudy,0,2013-08-11 20:53:00
5:53 PM,77.0,55.0,47,30.08,10.0,NNW,3.5,-,N/A,,Mostly Cloudy,340,2013-08-11 21:53:00
6:53 PM,75.0,55.0,50,30.07,10.0,NNE,4.6,-,N/A,,Clear,30,2013-08-11 22:53:00
7:53 PM,72.0,55.9,57,30.06,10.0,NNE,3.5,-,N/A,,Clear,20,2013-08-11 23:53:00
8:53 PM,68.0,55.0,63,30.06,10.0,Calm,Calm,-,N/A,,Clear,0,2013-08-12 00:53:00
9:53 PM,64.9,55.0,70,30.09,10.0,Calm,Calm,-,N/A,,Clear,0,2013-08-12 01:53:00
10:53 PM,64.0,57.0,78,30.09,10.0,Calm,Calm,-,N/A,,Clear,0,2013-08-12 02:53:00
11:53 PM,64.0,55.0,73,30.08,10.0,Calm,Calm,-,N/A,,Clear,0,2013-08-12 03:53:00